Location: Rostock
(54.0884°N, 12.1234°E)
Time: 04:39:39
(UTC+01:00)

ISS - Pass Details

Date: 06 January 2018
Orbit: 402 x 407 km, 51.6° (Epoch: 24 January)

Event Time Altitude Azimuth Distance (km) Brightness Sun altitude
Exits shadow 05:12:58 21° 103° (ESE) 979 -1.2 -27.4°
Drops below altitude 10° 05:14:17 10° 93° (E) 1,472 0.0 -27.2°
Sets 05:16:25 0° 87° (E) 2,335 1.3 -26.9°
